EW9034 Weather Reports


Display with metric or nautical units.
time (UTC)temp
F
wind
direction
speed
MPH
gust
MPH
rain 1hr
in
rain 24hr
in
rain mn
in
humidity
%
barometer
mb
20260503231531 71 327 21.0 30.0 0.00 0.00 0.00 25 1005.2
20260503230039 72 335 21.0 34.0 0.00 0.00 0.00 25 1005.2
20260503224528 74 339 18.0 26.0 0.00 0.00 0.00 24 1005.0
20260503223028 74 334 12.0 32.0 0.00 0.00 0.00 24 1005.1
20260503221530 74 321 19.0 37.0 0.00 0.00 0.00 22 1005.3
20260503220026 75 319 28.0 35.0 0.00 0.00 0.00 21 1005.2
20260503214536 75 306 22.0 34.0 0.00 0.00 0.00 21 1005.2
20260503213024 75 286 15.0 28.0 0.00 0.00 0.00 24 1005.5
20260503211522 74 291 19.0 33.0 0.00 0.00 0.00 24 1005.6
20260503210020 74 319 18.0 33.0 0.00 0.00 0.00 24 1006.1
20260503204517 74 336 17.0 26.0 0.00 0.00 0.00 25 1006.2
20260503203017 73 331 14.0 28.0 0.00 0.00 0.00 26 1006.5
20260503201515 73 309 8.0 30.0 0.00 0.00 0.00 28 1006.7
20260503200013 73 311 12.0 31.0 0.00 0.00 0.00 27 1007.0
20260503194511 72 265 16.0 24.0 0.00 0.00 0.00 27 1007.1
20260503193016 72 279 18.0 25.0 0.00 0.00 0.00 26 1007.2
20260503191518 72 315 15.0 25.0 0.00 0.00 0.00 28 1007.5
20260503190007 73 324 15.0 27.0 0.00 0.00 0.00 27 1007.8
20260503184503 71 327 11.0 23.0 0.00 0.00 0.00 28 1008.0
20260503183059 72 273 14.0 22.0 0.00 0.00 0.00 28 1008.2
20260503181557 70 304 13.0 24.0 0.00 0.00 0.00 29 1008.2
20260503180100 69 312 11.0 20.0 0.00 0.00 0.00 32 1008.7
20260503174554 67 309 12.0 18.0 0.00 0.00 0.00 33 1009.0
20260503173053 68 305 13.0 20.0 0.00 0.00 0.00 30 1009.0
20260503171550 68 316 9.0 18.0 0.00 0.00 0.00 32 1009.1
20260503081509 40 250 6.0 9.0 0.00 0.00 0.00 83 1011.7
20260503071613 41 251 4.0 9.0 0.00 0.00 0.00 78 1012.1
20260503054558 43 263 4.0 7.0 0.00 0.00 0.00 71 1012.3
20260503053040 43 263 4.0 9.0 0.00 0.00 0.00 71 1012.4
20260503051538 42 265 2.0 6.0 0.00 0.00 0.00 72 1012.4
20260503050037 43 266 4.0 7.0 0.00 0.00 0.00 69 1012.5
20260503044542 44 267 5.0 10.0 0.00 0.00 0.00 66 1012.6
20260503043047 45 278 4.0 8.0 0.00 0.00 0.00 66 1012.6
20260503041536 45 290 2.0 7.0 0.00 0.00 0.00 64 1012.6
20260503040037 45 308 3.0 4.0 0.00 0.00 0.00 64 1012.6
20260503034540 45 309 3.0 6.0 0.00 0.00 0.00 59 1012.8
20260503033033 48 314 3.0 6.0 0.00 0.00 0.00 56 1012.7
20260503031533 50 317 4.0 5.0 0.00 0.00 0.00 53 1012.4
20260503030036 54 317 0.0 0.0 0.00 0.00 0.00 54 1012.3
20260503024536 58 317 0.0 0.0 0.00 0.00 0.00 48 1012.4
20260503023030 60 316 0.0 0.0 0.00 0.00 0.00 44 1012.3
20260503021530 63 316 2.0 4.0 0.00 0.00 0.00 40 1012.4
20260503020029 66 316 2.0 4.0 0.00 0.00 0.00 38 1012.5
20260503014527 67 316 2.0 4.0 0.00 0.00 0.00 38 1012.6
20260503013036 67 317 2.0 6.0 0.00 0.00 0.00 38 1012.6
20260503011523 66 305 0.0 3.0 0.00 0.00 0.00 38 1012.8
20260503010023 63 304 1.0 5.0 0.00 0.00 0.00 44 1013.0
20260503004526 65 298 5.0 11.0 0.00 0.00 0.00 38 1013.1
20260503003019 67 328 4.0 10.0 0.00 0.00 0.00 35 1013.2
20260503001518 65 309 5.0 9.0 0.00 0.00 0.00 38 1013.4
20260503000022 67 290 5.0 11.0 0.00 0.00 0.00 35 1013.4
20260502234521 68 288 7.0 12.0 0.00 0.00 0.00 33 1013.5
20260502233027 67 271 5.0 13.0 0.00 0.00 0.00 35 1013.6